Location: Newark
(51.1667°N, 4.6667°W)
Time: 06:41:37
(UTC+00:00)

ISS - Visible Passes

Search period start: 28 February 2020 00:00
Search period end: 09 March 2020 00:00
Orbit: 415 x 423 km, 51.6° (Epoch: 28 February)

Date Brightness Start Highest point End Pass type
(mag) Time Alt. Az. Time Alt. Az. Time Alt. Az.
28 Feb -0.9 04:13:40 15° ESE 04:13:40 15° ESE 04:14:45 10° E visible
28 Feb -3.6 05:46:37 22° WSW 05:48:36 67° SSE 05:51:59 10° E visible
29 Feb -3.3 05:00:53 51° SSE 05:01:00 51° SSE 05:04:19 10° E visible
01 Mar -1.4 04:15:06 22° E 04:15:06 22° E 04:16:36 10° E visible
01 Mar -3.8 05:48:03 22° W 05:50:05 87° NNW 05:53:30 10° E visible
02 Mar -3.9 05:02:13 75° SW 05:02:25 82° SSE 05:05:49 10° E visible
03 Mar -1.7 04:16:21 28° E 04:16:21 28° E 04:18:08 10° E visible
03 Mar -3.7 05:49:17 19° W 05:51:34 80° N 05:54:58 10° E visible
04 Mar -3.8 05:03:24 63° WNW 05:03:52 81° N 05:07:16 10° E visible
05 Mar -2.1 04:17:30 34° E 04:17:30 34° E 04:19:33 10° E visible
05 Mar -3.8 05:50:27 16° W 05:53:01 86° S 05:56:24 10° ESE visible
06 Mar -0.4 03:31:37 11° E 03:31:37 11° E 03:31:50 10° E visible
06 Mar -3.8 05:04:33 52° WNW 05:05:18 84° N 05:08:41 10° E visible
07 Mar -2.4 04:18:40 39° E 04:18:40 39° E 04:20:57 10° E visible
07 Mar -3.5 05:51:37 14° W 05:54:20 57° SSW 05:57:39 10° ESE visible
08 Mar -0.5 03:32:50 13° E 03:32:50 13° E 03:33:12 10° E visible
08 Mar -3.8 05:05:46 46° W 05:06:38 73° SSW 05:10:00 10° ESE visible
